Date String (YYYY-MM-DD hh:mm:ss) UTC,Instrument flags,Ambient pressure (hPa),Sample flow (lpm),Bypass flow (lpm),Sample temperature (°C),Ambient temperature (°C),ASC tube jacket temperature (°C),LED temperature (°C),Box temperature (°C),Sample RH (%),Span deviation,Mass concentration (μg/m³),Mass concentration (μg/m³),Mass concentration (μg/m³)
DateTimeUTC,F1_M11,P_M11,Q1_M11,Q2_M11,T1_M11,T2_M11,T3_M11,T4_M11,T5_M11,U1_M11,ZSPAN_M11,X0_M11,X2_M11,X1_M11
2022-10-27 09:00:00,,0820.0,5.00,0.00,26.3,24.5,00.0,35.2,28.1,14.2,0000.0,0003.77,0002.22,0001.88
2022-10-27 09:01:00,,0820.0,5.00,0.00,26.3,24.5,00.0,35.2,28.1,14.2,0000.0,0003.63,0002.24,0001.89
2022-10-27 09:02:00,,0820.0,5.01,0.00,26.3,24.5,00.0,35.2,28.1,14.3,0000.0,0003.55,0002.26,0001.91
2022-10-27 09:03:00,,0820.0,5.00,0.00,26.3,24.5,00.0,35.2,28.1,14.3,0000.0,0003.66,0002.29,0001.93
2022-10-27 09:04:00,,0820.0,5.00,0.00,26.3,24.5,00.0,35.2,28.1,14.3,0000.0,0003.66,0002.33,0001.94
2022-10-27 09:05:00,,0820.0,5.02,0.00,26.3,24.5,00.0,35.1,28.1,14.3,0000.0,0003.93,0002.36,0001.96
2022-10-27 09:06:00,,0820.0,5.00,0.00,26.2,24.4,00.0,35.1,28.1,14.4,0000.0,0003.93,0002.37,0001.96
2022-10-27 09:07:00,,0820.0,4.99,0.00,26.2,24.4,00.0,35.1,28.1,14.4,0000.0,0003.96,0002.38,0001.95
2022-10-27 09:08:00,,0820.0,4.99,0.00,26.2,24.4,00.0,35.1,28.1,14.5,0000.0,0004.11,0002.43,0001.94
2022-10-27 09:09:00,,0820.0,4.99,0.00,26.2,24.3,00.0,35.1,28.0,14.5,0000.0,0004.22,0002.45,0001.93
2022-10-27 09:10:00,,0820.1,5.00,0.00,26.2,24.3,00.0,35.1,28.0,14.6,0000.0,0004.19,0002.41,0001.91
2022-10-27 09:11:00,,0820.1,5.01,0.00,26.2,24.2,00.0,35.0,28.0,14.6,0000.0,0004.47,0002.47,0001.91
2022-10-27 09:12:00,,0820.1,5.00,0.00,26.1,24.2,00.0,35.0,27.9,14.7,0000.0,0004.53,0002.51,0001.92
2022-10-27 09:13:00,,0820.2,4.99,0.00,26.1,24.2,00.0,35.0,27.9,14.7,0000.0,0004.52,0002.52,0001.91
2022-10-27 09:14:00,,0820.2,5.00,0.00,26.1,24.2,00.0,35.0,27.9,14.7,0000.0,0004.41,0002.49,0001.90
2022-10-27 09:15:00,,0820.2,5.00,0.00,26.1,24.2,00.0,35.0,27.9,14.7,0000.0,0005.82,0002.47,0001.91
2022-10-27 09:16:00,,0820.2,4.99,0.00,26.1,24.3,00.0,35.0,27.9,14.7,0000.0,0006.14,0002.49,0001.91
2022-10-27 09:17:00,,0820.2,5.00,0.00,26.1,24.3,00.0,35.0,27.9,14.7,0000.0,0006.51,0002.50,0001.92
2022-10-27 09:18:00,,0820.2,5.02,0.00,26.1,24.3,00.0,35.0,27.9,14.7,0000.0,0006.74,0002.56,0001.94
2022-10-27 09:19:00,,0820.2,5.00,0.00,26.1,24.3,00.0,34.9,27.9,14.7,0000.0,0006.74,0002.57,0001.95
2022-10-27 09:20:00,,0820.2,5.00,0.00,26.0,24.3,00.0,34.9,27.9,14.7,0000.0,0006.91,0002.63,0001.97
2022-10-27 09:21:00,,0820.2,5.00,0.00,26.1,24.4,00.0,34.9,27.9,14.7,0000.0,0007.07,0002.73,0002.00
2022-10-27 09:22:00,,0820.1,5.00,0.00,26.1,24.4,00.0,34.9,27.9,14.7,0000.0,0006.99,0002.73,0002.01
2022-10-27 09:23:00,,0820.1,5.00,0.00,26.1,24.4,00.0,34.9,27.9,14.7,0000.0,0007.15,0002.75,0002.03
2022-10-27 09:24:00,,0820.1,5.00,0.00,26.1,24.4,00.0,34.9,27.9,14.7,0000.0,0007.64,0002.78,0002.06
2022-10-27 09:25:00,,0820.1,4.99,0.00,26.0,24.4,00.0,34.9,27.9,14.7,0000.0,0007.81,0002.81,0002.07
2022-10-27 09:26:00,,0820.1,5.02,0.00,26.0,24.4,00.0,34.9,27.9,14.7,0000.0,0007.66,0002.88,0002.08
2022-10-27 09:27:00,,0820.1,5.00,0.00,26.0,24.4,00.0,34.9,27.9,14.7,0000.0,0006.96,0002.86,0002.10
2022-10-27 09:28:00,,0820.0,5.00,0.00,26.1,24.4,00.0,34.9,27.9,14.7,0000.0,0006.45,0002.86,0002.11
2022-10-27 09:29:00,,0820.0,5.00,0.00,26.1,24.5,00.0,34.9,28.0,14.7,0000.0,0006.83,0002.85,0002.13
2022-10-27 09:30:00,,0820.1,5.00,0.00,26.1,24.5,00.0,34.9,28.0,14.7,0000.0,0007.06,0002.85,0002.14
2022-10-27 09:31:00,,0820.0,5.00,0.00,26.1,24.5,00.0,34.9,28.0,14.7,0000.0,0006.97,0002.85,0002.16
2022-10-27 09:32:00,,0820.0,4.99,0.00,26.1,24.6,00.0,34.9,28.0,14.6,0000.0,0006.99,0002.84,0002.18
2022-10-27 09:33:00,,0820.1,5.00,0.00,26.1,24.6,00.0,34.9,28.0,14.7,0000.0,0007.08,0002.89,0002.20
2022-10-27 09:34:00,,0820.1,5.00,0.00,26.1,24.6,00.0,34.9,28.0,14.7,0000.0,0006.67,0002.88,0002.20
2022-10-27 09:35:00,,0820.1,5.00,0.00,26.1,24.6,00.0,34.9,28.0,14.7,0000.0,0006.06,0002.88,0002.20
2022-10-27 09:36:00,,0820.1,5.01,0.00,26.1,24.6,00.0,34.9,28.0,14.7,0000.0,0005.66,0002.83,0002.20
2022-10-27 09:37:00,,0820.1,5.01,0.00,26.1,24.6,00.0,34.9,28.1,14.7,0000.0,0005.79,0002.81,0002.22
2022-10-27 09:38:00,,0820.1,5.00,0.00,26.1,24.6,00.0,34.9,28.1,14.8,0000.0,0005.81,0002.80,0002.22
2022-10-27 09:39:00,,0820.1,5.00,0.00,26.1,24.6,00.0,34.9,28.0,14.8,0000.0,0005.90,0002.84,0002.23
2022-10-27 09:40:00,,0820.1,4.99,0.00,26.1,24.6,00.0,34.9,28.1,14.8,0000.0,0005.50,0002.90,0002.22
2022-10-27 09:41:00,,0820.2,5.00,0.00,26.1,24.6,00.0,34.9,28.1,14.8,0000.0,0005.64,0002.95,0002.22
2022-10-27 09:42:00,,0820.2,4.99,0.00,26.1,24.6,00.0,34.9,28.1,14.9,0000.0,0006.49,0002.92,0002.21
2022-10-27 09:43:00,,0820.2,5.02,0.00,26.1,24.6,00.0,34.9,28.1,14.8,0000.0,0006.52,0002.89,0002.19
2022-10-27 09:44:00,,0820.2,5.00,0.00,26.1,24.6,00.0,34.9,28.1,14.8,0000.0,0007.23,0002.85,0002.17
2022-10-27 09:45:00,,0820.2,4.99,0.00,26.1,24.6,00.0,34.9,28.1,14.8,0000.0,0007.50,0002.81,0002.17
2022-10-27 09:46:00,,0820.2,5.00,0.00,26.2,24.6,00.0,34.9,28.1,14.8,0000.0,0007.52,0002.78,0002.18
2022-10-27 09:47:00,,0820.2,5.00,0.00,26.2,24.6,00.0,34.9,28.1,14.8,0000.0,0008.00,0002.87,0002.20
2022-10-27 09:48:00,,0820.3,4.99,0.00,26.2,24.7,00.0,34.9,28.1,14.8,0000.0,0007.93,0002.90,0002.20
2022-10-27 09:49:00,,0820.2,4.99,0.00,26.2,24.7,00.0,34.9,28.1,14.8,0000.0,0008.56,0002.92,0002.22
2022-10-27 09:50:00,,0820.2,5.00,0.00,26.2,24.7,00.0,34.9,28.1,14.8,0000.0,0008.64,0002.93,0002.23
2022-10-27 09:51:00,,0820.3,5.00,0.00,26.2,24.7,00.0,34.9,28.1,14.8,0000.0,0008.57,0002.91,0002.25
2022-10-27 09:52:00,,0820.3,5.00,0.00,26.2,24.7,00.0,34.9,28.1,14.8,0000.0,0008.40,0002.89,0002.27
2022-10-27 09:53:00,,0820.3,5.00,0.00,26.2,24.7,00.0,34.9,28.1,14.8,0000.0,0008.08,0002.93,0002.29
2022-10-27 09:54:00,,0820.3,5.00,0.00,26.2,24.7,00.0,34.9,28.1,14.8,0000.0,0008.04,0002.91,0002.29
2022-10-27 09:55:00,,0820.3,5.01,0.00,26.2,24.7,00.0,34.9,28.2,14.9,0000.0,0007.55,0002.96,0002.32
2022-10-27 09:56:00,,0820.3,5.00,0.00,26.2,24.7,00.0,34.9,28.2,14.9,0000.0,0007.45,0002.99,0002.33
2022-10-27 09:57:00,,0820.3,5.00,0.00,26.2,24.7,00.0,34.9,28.1,14.9,0000.0,0007.41,0002.99,0002.31
2022-10-27 09:58:00,,0820.3,5.00,0.00,26.2,24.6,00.0,34.9,28.1,15.0,0000.0,0006.92,0002.98,0002.29
2022-10-27 09:59:00,,0820.3,5.00,0.00,26.2,24.5,00.0,34.9,28.0,15.0,0000.0,0006.08,0002.93,0002.26
